[[{"header":{"parameterUnit":"m.s-1","parameterCategory":1,"la1":30.2991,"la2":30.254,"lo1":-89.0895,"lo2":-89.0444,"dy":0.0017,"dx":0.0017,"nx":28,"ny":28,"refTime":"2023-10-10T03:00:00:Z","depth":0,"parameterNumber":2,"parameterNumberName":"U-component_of_WINDS"},"data":[0,0,0,0,0,0,0,0,0,0,0,0,0,0,0,0,0,0,0,0,0,0,0,0,0,0,0,0,0,0,0,0,0,0,0,0,0,0,0,0,0,0,0,0,0,0,0,0,0,0,0,0,0,0,0,0,0,0,-1.471,-1.471,0,-1.4699,-1.4699,-1.4699,-1.4655,-1.4654,-1.4653,-1.4652,-1.4642,-1.4643,-1.4644,0,0,0,0,0,0,0,0,0,0,0,0,0,-1.4693,-1.4694,-1.471,-1.471,-1.471,-1.4699,-1.4699,-1.4699,-1.4655,-1.4654,-1.4653,-1.4651,-1.4642,-1.4643,-1.4644,0,0,0,0,0,0,0,0,0,0,0,0,0,-1.4694,-1.4694,-1.471,-1.4686,-1.4684,-1.4699,-1.4699,-1.4699,-1.4655,-1.4654,-1.4652,-1.4651,-1.4642,-1.4643,-1.4644,-1.4681,0,0,-1.4647,-1.4648,0,0,0,0,0,0,0,0,-1.4694,-1.4694,-1.469,-1.4688,-1.4686,-1.4677,-1.469,-1.4693,-1.4656,-1.4666,-1.4652,-1.465,-1.4655,-1.4655,-1.4656,-1.4681,-1.468,-1.4647,-1.4648,-1.4648,-1.4649,0,0,0,0,0,0,0,-1.4694,-1.4694,-1.4706,-1.469,-1.4687,-1.4677,-1.4675,-1.469,-1.467,-1.4665,-1.4662,-1.4661,-1.4654,-1.4656,-1.4656,-1.468,-1.4647,-1.4648,-1.4649,-1.4649,-1.4736,-1.4738,0,0,0,0,0,0,-1.4697,-1.4695,-1.4706,-1.4705,-1.4686,-1.4679,-1.4677,-1.4681,-1.4669,-1.4666,-1.4663,-1.4659,-1.4654,-1.4655,-1.4655,-1.4699,-1.4648,-1.4649,-1.465,-1.4734,-1.4736,-1.4738,0,0,0,0,0,0,-1.4697,-1.4698,-1.4706,-1.4699,-1.4699,-1.468,-1.4686,-1.4682,-1.4684,-1.4667,-1.4663,-1.4668,-1.4653,-1.4654,-1.4675,-1.4698,-1.465,-1.4651,-1.4732,-1.4735,-1.4737,-1.4786,0,0,0,0,0,0,-1.4696,-1.4698,-1.4712,-1.47,-1.47,-1.4726,-1.4687,-1.4683,-1.4685,-1.4681,-1.4672,-1.4669,-1.4652,-1.4674,-1.4676,-1.4698,-1.4652,-1.473,-1.4733,-1.4736,-1.4782,-1.479,-1.4796,0,0,0,0,0,-1.4696,-1.4726,-1.4713,-1.4714,-1.4716,-1.4727,-1.4728,-1.4708,-1.4687,-1.4701,-1.4691,-1.4669,-1.4695,-1.4677,-1.4679,-1.4702,-1.4729,-1.4733,-1.4736,-1.4779,-1.4788,-1.4796,0,0,0,0,0,0,-1.4741,-1.4724,-1.4709,-1.4736,-1.4734,-1.472,-1.4736,-1.4718,-1.4721,-1.4717,-1.4693,-1.4691,-1.4716,-1.4711,-1.4691,-1.4738,-1.4708,-1.4713,-1.474,-1.4749,-1.4756,-1.4756,-1.4652,0,0,0,0,0,-1.4754,-1.4764,-1.4749,-1.4774,-1.4774,-1.4756,-1.476,-1.4745,-1.4741,-1.474,-1.4731,-1.4729,-1.4737,-1.4743,-1.4749,-1.4781,-1.4779,-1.4798,-1.4805,-1.4811,-1.4815,-1.4833,-1.4841,-1.475,-1.475,-1.475,0,0,-1.4782,-1.4773,-1.4781,-1.4783,-1.4779,-1.4791,-1.4755,-1.4768,-1.4777,-1.4742,-1.4762,-1.4756,-1.4752,-1.4779,-1.4791,-1.4775,-1.484,-1.4816,-1.4821,-1.4821,-1.4838,-1.4846,-1.4854,-1.4753,-1.4753,-1.4752,0,0,-1.4837,-1.4832,-1.4852,-1.485,-1.4844,-1.4832,-1.4838,-1.4827,-1.4822,-1.4841,-1.4815,-1.4826,-1.4839,-1.4838,-1.4839,-1.4895,-1.4876,-1.4898,-1.4935,-1.4952,-1.4959,-1.4966,-1.4986,-1.4994,-1.4902,-1.4903,-1.4903,0,-1.4871,-1.4887,-1.4865,-1.4881,-1.4883,-1.4852,-1.4874,-1.4872,-1.487,-1.4872,-1.4855,-1.4872,-1.4868,-1.4895,-1.4908,-1.491,-1.4916,-1.4899,-1.496,-1.4966,-1.4972,-1.4991,-1.4999,-1.4905,-1.4905,-1.4905,-1.4904,0,-1.493,-1.4941,-1.4959,-1.4957,-1.4961,-1.498,-1.4962,-1.4968,-1.4954,-1.4944,-1.4965,-1.4958,-1.4963,-1.4968,-1.4954,-1.4993,-1.4984,-1.4964,-1.4934,-1.4983,-1.5001,-1.5008,-1.4909,-1.4908,-1.4908,-1.4907,0,0,-1.5012,-1.4999,-1.5006,-1.5005,-1.4998,-1.5007,-1.5025,-1.5029,-1.5036,-1.5035,-1.505,-1.5063,-1.5045,-1.5046,-1.5031,-1.5047,-1.5093,-1.5025,-1.5024,-1.5038,-1.5137,-1.5152,-1.516,-1.508,-1.5081,-1.5082,-1.5137,0,-1.5065,-1.5094,-1.5076,-1.5107,-1.5118,-1.509,-1.5105,-1.5103,-1.5095,-1.5103,-1.5094,-1.5104,-1.5078,-1.5079,-1.5093,-1.5084,-1.5112,-1.508,-1.5093,-1.5094,-1.5095,-1.517,-1.5185,-1.5237,-1.5144,-1.5145,-1.5146,0,-1.5131,-1.5133,-1.5166,-1.5157,-1.5161,-1.5175,-1.5179,-1.5187,-1.5184,-1.5177,-1.5179,-1.5161,-1.5179,-1.5149,-1.5173,-1.5152,-1.5157,-1.5153,-1.5155,-1.5155,-1.5123,-1.5172,-1.5253,-1.5261,-1.5156,-1.5155,-1.5155,0,-1.5188,-1.52,-1.5221,-1.5221,-1.5212,-1.5222,-1.5219,-1.5215,-1.5219,-1.5222,-1.5225,-1.523,-1.5233,-1.5238,-1.5222,-1.5202,-1.5249,-1.5218,-1.5244,-1.5244,-1.5254,-1.5254,-1.5338,-1.5258,-1.5257,-1.5257,-1.5257,0,-1.5249,-1.527,-1.5247,-1.526,-1.5283,-1.5262,-1.5286,-1.528,-1.5277,-1.5289,-1.5265,-1.5277,-1.5255,-1.5265,-1.5253,-1.5275,-1.5277,-1.5272,-1.5268,-1.5274,-1.5275,-1.5276,-1.5272,-1.5259,-1.5259,-1.5259,-1.5258,0,-1.5316,-1.5302,-1.5323,-1.5312,-1.531,-1.5328,-1.5319,-1.5332,-1.5322,-1.5337,-1.534,-1.5325,-1.5336,-1.532,-1.5329,-1.5321,-1.5352,-1.5343,-1.5353,-1.535,-1.5377,-1.5374,-1.5465,-1.5476,-1.5389,-1.5389,-1.539,0,-1.5356,-1.5372,-1.5363,-1.5369,-1.5367,-1.5378,-1.5382,-1.5363,-1.5368,-1.5367,-1.538,-1.5388,-1.5394,-1.5412,-1.5403,-1.541,-1.5401,-1.5432,-1.5402,-1.5407,-1.5402,-1.5401,-1.5403,-1.5438,-1.5439,-1.544,-1.5441,0,-1.5429,-1.5421,-1.5427,-1.5432,-1.5438,-1.5441,-1.5442,-1.5449,-1.5429,-1.5436,-1.5447,-1.5451,-1.5461,-1.547,-1.5474,-1.5472,-1.5453,-1.5451,-1.5457,-1.5463,-1.5468,-1.5466,-1.537,-1.5448,-1.5448,-1.5447,-1.5447,-1.5446,-1.5483,-1.5496,-1.5493,-1.5501,-1.55,-1.5502,-1.5513,-1.5505,-1.5513,-1.5519,-1.5508,-1.5521,-1.5519,-1.5524,-1.5523,-1.5534,-1.552,-1.553,-1.5532,-1.5534,-1.5539,-1.5466,-1.5535,-1.5535,-1.5534,-1.5534,-1.5534,0,-1.5555,-1.5551,-1.5559,-1.5562,-1.5569,-1.5551,-1.5552,-1.5559,-1.5571,-1.5571,-1.5577,-1.559,-1.5599,-1.559,-1.5597,-1.5608,-1.56,-1.5611,-1.561,-1.5609,-1.555,-1.5544,-1.5617,-1.5617,-1.5617,-1.5617,-1.5617,-1.5617,-1.5593,-1.5614,-1.5606,-1.5627,-1.5623,-1.5636,-1.5638,-1.564,-1.5639,-1.5654,-1.5661,-1.5656,-1.5652,-1.5659,-1.5667,-1.5664,-1.5668,-1.5682,-1.5677,-1.5622,-1.5613,-1.5606,-1.56,-1.5683,-1.5683,-1.5735,-1.5736,-1.5736]},{"header":{"parameterUnit":"m.s-1","parameterCategory":1,"la1":30.2991,"la2":30.254,"lo1":-89.0895,"lo2":-89.0444,"dy":0.0017,"dx":0.0017,"nx":28,"ny":28,"refTime":"2023-10-10T03:00:00:Z","depth":0,"parameterNumber":3,"parameterNumberName":"V-component_of_WINDS"},"data":[0,0,0,0,0,0,0,0,0,0,0,0,0,0,0,0,0,0,0,0,0,0,0,0,0,0,0,0,0,0,0,0,0,0,0,0,0,0,0,0,0,0,0,0,0,0,0,0,0,0,0,0,0,0,0,0,0,0,3.1935,3.1935,0,3.1943,3.1943,3.1943,3.192,3.192,3.1919,3.1918,3.1925,3.1926,3.1927,0,0,0,0,0,0,0,0,0,0,0,0,0,3.1899,3.19,3.1935,3.1935,3.1935,3.1943,3.1943,3.1943,3.192,3.1919,3.1919,3.1918,3.1925,3.1926,3.1927,0,0,0,0,0,0,0,0,0,0,0,0,0,3.1911,3.19,3.1935,3.1925,3.1924,3.1943,3.1943,3.1943,3.1921,3.1919,3.1918,3.1917,3.1925,3.1926,3.1927,3.1956,0,0,3.1931,3.1931,0,0,0,0,0,0,0,0,3.1911,3.1913,3.1926,3.1925,3.1924,3.1929,3.1933,3.1947,3.1921,3.1922,3.1918,3.1917,3.1927,3.1928,3.1932,3.1956,3.1956,3.1931,3.1932,3.1932,3.1933,0,0,0,0,0,0,0,3.191,3.1912,3.1938,3.1926,3.1925,3.1919,3.192,3.1935,3.193,3.1922,3.192,3.1921,3.1927,3.1931,3.1932,3.1956,3.1931,3.1932,3.1933,3.1933,3.2003,3.2004,0,0,0,0,0,0,3.1911,3.1912,3.1937,3.1938,3.1915,3.1921,3.1922,3.1929,3.193,3.1929,3.1922,3.192,3.1929,3.1931,3.1932,3.1965,3.1932,3.1933,3.1934,3.2002,3.2004,3.2005,0,0,0,0,0,0,3.191,3.1913,3.1937,3.1924,3.1927,3.1923,3.1931,3.193,3.1934,3.193,3.1929,3.1927,3.1929,3.193,3.195,3.1965,3.1934,3.1935,3.2001,3.2003,3.2004,3.2031,0,0,0,0,0,0,3.1909,3.1913,3.1924,3.1925,3.1928,3.1955,3.1932,3.193,3.1936,3.1933,3.1935,3.1934,3.1928,3.1948,3.1951,3.1966,3.1936,3.1999,3.2002,3.2004,3.2029,3.2034,3.2038,0,0,0,0,0,3.1908,3.1931,3.1925,3.1928,3.1942,3.1956,3.1958,3.195,3.1937,3.1948,3.1946,3.1934,3.1963,3.195,3.1953,3.1969,3.1998,3.2001,3.2003,3.2027,3.2033,3.2038,0,0,0,0,0,0,3.1932,3.1931,3.1924,3.1948,3.1952,3.1952,3.1965,3.1956,3.1964,3.1961,3.1951,3.1952,3.1973,3.1973,3.1959,3.1997,3.1979,3.1982,3.1995,3.2001,3.2005,3.2004,3.1937,0,0,0,0,0,3.194,3.1952,3.1951,3.1972,3.1975,3.197,3.1976,3.197,3.1973,3.1975,3.1974,3.1978,3.1988,3.1995,3.2003,3.2029,3.2029,3.2042,3.2046,3.205,3.2052,3.2065,3.2071,3.2013,3.2013,3.2013,0,0,3.1957,3.1958,3.1966,3.1977,3.198,3.1992,3.1971,3.1985,3.1994,3.1977,3.1995,3.1995,3.1998,3.2021,3.2031,3.2022,3.2068,3.2053,3.2056,3.2056,3.2069,3.2074,3.2079,3.2015,3.2014,3.2014,0,0,3.1994,3.1996,3.2014,3.2017,3.2021,3.2018,3.2022,3.2024,3.2023,3.2041,3.2028,3.2039,3.2056,3.2059,3.2062,3.2101,3.209,3.2104,3.2126,3.2139,3.2144,3.2148,3.2161,3.2166,3.2107,3.2107,3.2107,0,3.2014,3.2032,3.2025,3.2039,3.2044,3.203,3.2048,3.2051,3.2058,3.2061,3.2051,3.2073,3.2074,3.2097,3.2106,3.211,3.2114,3.2103,3.2144,3.2148,3.2152,3.2164,3.2169,3.2109,3.2108,3.2108,3.2108,0,3.2057,3.207,3.2084,3.2091,3.2098,3.2114,3.2108,3.2116,3.211,3.2107,3.2126,3.2127,3.2136,3.2141,3.2135,3.2163,3.2157,3.2146,3.2127,3.2159,3.217,3.2175,3.2111,3.211,3.211,3.2109,0,0,3.2108,3.2111,3.2116,3.2119,3.2123,3.2133,3.2148,3.2157,3.2164,3.2169,3.2181,3.2197,3.2186,3.219,3.2184,3.2196,3.2225,3.2183,3.2183,3.219,3.2256,3.2264,3.227,3.2219,3.222,3.222,3.2256,0,3.2144,3.2171,3.2165,3.2191,3.2203,3.2189,3.2203,3.2206,3.2205,3.2214,3.2212,3.2222,3.2208,3.2211,3.2222,3.222,3.2238,3.2217,3.223,3.223,3.2228,3.2276,3.2284,3.2317,3.226,3.2261,3.2261,0,3.2189,3.2196,3.2224,3.2226,3.223,3.2243,3.225,3.226,3.2263,3.2261,3.2266,3.2258,3.2273,3.2255,3.2275,3.2261,3.2266,3.2266,3.2267,3.2267,3.2247,3.2276,3.2328,3.2332,3.2268,3.2268,3.2267,0,3.2223,3.224,3.2259,3.2262,3.2264,3.2273,3.2274,3.2277,3.2283,3.2289,3.2293,3.2301,3.2305,3.2312,3.2306,3.2294,3.2327,3.2309,3.2325,3.2325,3.2332,3.2331,3.2384,3.2337,3.2336,3.2336,3.2336,0,3.2263,3.228,3.2274,3.2285,3.2304,3.2297,3.2315,3.2315,3.2318,3.2329,3.2318,3.2328,3.232,3.2329,3.2325,3.2342,3.2344,3.2342,3.2341,3.2343,3.2343,3.2345,3.2342,3.2338,3.2337,3.2337,3.2337,0,3.2304,3.23,3.2319,3.232,3.2321,3.2335,3.2335,3.2346,3.2344,3.2357,3.236,3.2356,3.2367,3.2362,3.2373,3.237,3.2392,3.2388,3.2391,3.2389,3.2406,3.2404,3.2461,3.2467,3.2417,3.2417,3.2417,0,3.2329,3.2342,3.2345,3.2351,3.2354,3.2365,3.237,3.2364,3.237,3.2375,3.2385,3.2395,3.2402,3.242,3.2418,3.2426,3.2421,3.2441,3.2423,3.2424,3.2421,3.242,3.2421,3.2444,3.2445,3.2445,3.2446,0,3.2375,3.2372,3.2381,3.239,3.2397,3.2403,3.2408,3.2414,3.2408,3.2416,3.2427,3.2432,3.2444,3.2453,3.2461,3.2462,3.2452,3.2452,3.2456,3.2457,3.2458,3.2457,3.24,3.245,3.245,3.2449,3.2449,3.2449,3.2408,3.2419,3.2422,3.2432,3.2436,3.2441,3.2451,3.245,3.2459,3.2468,3.2463,3.2476,3.2479,3.2488,3.249,3.25,3.2492,3.2498,3.2499,3.2501,3.2503,3.2458,3.2501,3.2501,3.2501,3.2501,3.2501,0,3.2452,3.2453,3.2463,3.2471,3.2479,3.247,3.2476,3.2483,3.2494,3.2498,3.2506,3.2518,3.2528,3.2527,3.2535,3.2543,3.2539,3.2545,3.2544,3.2544,3.2509,3.2505,3.2548,3.2548,3.2548,3.2548,3.2548,3.2548,3.2476,3.2493,3.2491,3.251,3.2512,3.2524,3.2528,3.2533,3.2536,3.255,3.2558,3.2557,3.2559,3.2568,3.2576,3.2575,3.2579,3.2587,3.2584,3.2552,3.2547,3.2542,3.2538,3.2588,3.2588,3.2618,3.2618,3.2619]}]]